RYR33ZB EHAM-EIDW

Flight info

Callsign RYR33ZB
Flight time N/A
Altitude 36000
Route BERGI L60 PENIL UL28 LELDO M145 BAGSO BAGSO3R
Aircraft B38M/M-SDE1FGHILORVWXY/HB1

Departure

Time 2026-04-29 17:52
Airport Amsterdam Airport Schiphol (EHAM)

Arrival

Time N/A
Airport Dublin Airport (EIDW)
Time Latitude Longitude Altitude Speed Heading
2026-04-29 17:27 52.31049 4.75514 1 ft 0 kts 148°
2026-04-29 17:45 52.31051 4.75512 1 ft 1 kts 148°
2026-04-29 17:45 52.31066 4.75499 1 ft 3 kts 153°
2026-04-29 17:45 52.31082 4.75483 1 ft 3 kts 122°
2026-04-29 17:45 52.31083 4.75470 1 ft 2 kts 73°
2026-04-29 17:46 52.31078 4.75442 1 ft 2 kts 72°
2026-04-29 17:46 52.31076 4.75436 1 ft 1 kts 72°
2026-04-29 17:48 52.31079 4.75446 1 ft 3 kts 65°
2026-04-29 17:49 52.31101 4.75492 1 ft 8 kts 47°
2026-04-29 17:49 52.31152 4.75501 1 ft 10 kts 355°
2026-04-29 17:49 52.31238 4.75491 1 ft 15 kts 355°
2026-04-29 17:49 52.31361 4.75477 1 ft 20 kts 356°
2026-04-29 17:50 52.31486 4.75458 1 ft 12 kts 334°
2026-04-29 17:50 52.31507 4.75337 1 ft 13 kts 271°
2026-04-29 17:50 52.31503 4.75180 1 ft 15 kts 266°
2026-04-29 17:50 52.31497 4.75001 1 ft 17 kts 266°
2026-04-29 17:51 52.31490 4.74800 1 ft 18 kts 266°
2026-04-29 17:51 52.31531 4.74668 1 ft 15 kts 346°
2026-04-29 17:51 52.31639 4.74680 2 ft 16 kts 30°
2026-04-29 17:51 52.31672 4.74854 1 ft 19 kts 86°
2026-04-29 17:52 52.31683 4.75220 0 ft 61 kts 86°
2026-04-29 17:52 52.31706 4.75874 1 ft 111 kts 86°
2026-04-29 17:52 52.31791 4.78091 379 ft 165 kts 86°
2026-04-29 17:52 52.31879 4.79982 1324 ft 167 kts 85°
2026-04-29 17:53 52.32093 4.81871 2184 ft 182 kts 64°
2026-04-29 17:53 52.33144 4.83279 2767 ft 220 kts 21°
2026-04-29 17:53 52.34691 4.83168 3851 ft 235 kts 352°
2026-04-29 17:53 52.36290 4.82153 4616 ft 261 kts 333°
2026-04-29 17:54 52.37831 4.80344 5411 ft 281 kts 327°
2026-04-29 17:54 52.39413 4.78427 6517 ft 283 kts 327°
2026-04-29 17:54 52.41011 4.76508 7598 ft 286 kts 328°
2026-04-29 17:54 52.42611 4.74595 8625 ft 290 kts 328°
2026-04-29 17:55 52.44244 4.72648 9725 ft 292 kts 328°
2026-04-29 17:55 52.45905 4.70670 10595 ft 300 kts 328°
2026-04-29 17:55 52.47646 4.68601 11162 ft 318 kts 328°
2026-04-29 17:55 52.49313 4.66070 11788 ft 338 kts 309°
2026-04-29 17:56 52.50472 4.62637 12587 ft 347 kts 301°
2026-04-29 17:56 52.51632 4.59129 13466 ft 351 kts 302°
2026-04-29 17:56 52.52822 4.55596 14290 ft 356 kts 303°
2026-04-29 17:56 52.54032 4.52017 15050 ft 360 kts 302°
2026-04-29 17:57 52.55256 4.48405 15800 ft 364 kts 302°
2026-04-29 17:57 52.56496 4.44746 16533 ft 368 kts 302°
2026-04-29 17:57 52.57750 4.41044 17250 ft 372 kts 302°
2026-04-29 17:57 52.58587 4.38569 17731 ft 375 kts 302°
2026-04-29 17:58 52.60290 4.33527 18673 ft 379 kts 302°
2026-04-29 17:58 52.61577 4.29713 19268 ft 383 kts 302°
2026-04-29 17:58 52.62875 4.25857 19859 ft 386 kts 301°
2026-04-29 17:58 52.64182 4.21969 20446 ft 390 kts 301°
2026-04-29 17:59 52.65498 4.18047 21034 ft 393 kts 301°
2026-04-29 17:59 52.66809 4.14134 21594 ft 397 kts 301°
2026-04-29 17:59 52.68147 4.10134 22160 ft 400 kts 301°
2026-04-29 17:59 52.69493 4.06103 22718 ft 404 kts 301°
2026-04-29 18:00 52.70852 4.02029 23273 ft 407 kts 301°
2026-04-29 18:00 52.72221 3.97914 23802 ft 411 kts 301°
2026-04-29 18:00 52.73599 3.93770 24274 ft 414 kts 301°
2026-04-29 18:00 52.74986 3.89590 24729 ft 416 kts 301°
2026-04-29 18:01 52.76378 3.85385 25178 ft 419 kts 301°
2026-04-29 18:01 52.77778 3.81150 25620 ft 422 kts 301°
2026-04-29 18:01 52.79186 3.76884 26062 ft 424 kts 301°
2026-04-29 18:01 52.80601 3.72591 26496 ft 427 kts 301°
2026-04-29 18:02 52.82024 3.68263 26927 ft 429 kts 301°
2026-04-29 18:02 52.83452 3.63913 27339 ft 432 kts 301°
2026-04-29 18:02 52.84886 3.59537 27753 ft 434 kts 301°
2026-04-29 18:02 52.86330 3.55123 28154 ft 437 kts 300°
2026-04-29 18:03 52.87777 3.50690 28551 ft 439 kts 300°
2026-04-29 18:03 52.89234 3.46219 28941 ft 442 kts 300°
2026-04-29 18:03 52.90696 3.41728 29318 ft 444 kts 300°
2026-04-29 18:03 52.92164 3.37207 29689 ft 447 kts 300°
2026-04-29 18:04 52.93622 3.32707 30060 ft 449 kts 300°
2026-04-29 18:04 52.95099 3.28142 30440 ft 451 kts 300°
2026-04-29 18:04 52.96586 3.23537 30748 ft 454 kts 300°
2026-04-29 18:04 52.97978 3.18816 31045 ft 457 kts 291°
2026-04-29 18:05 52.98921 3.13772 31391 ft 459 kts 289°
2026-04-29 18:05 52.99888 3.08710 31659 ft 461 kts 289°
2026-04-29 18:05 53.00857 3.03620 31971 ft 463 kts 289°
2026-04-29 18:05 53.01826 2.98506 32271 ft 465 kts 288°
2026-04-29 18:06 53.02797 2.93367 32570 ft 467 kts 288°
2026-04-29 18:06 53.03772 2.88193 32859 ft 469 kts 288°
2026-04-29 18:06 53.04746 2.83012 33128 ft 471 kts 288°
2026-04-29 18:06 53.05723 2.77798 33431 ft 473 kts 288°
2026-04-29 18:07 53.06699 2.72572 33789 ft 473 kts 288°
2026-04-29 18:07 53.07658 2.67426 34196 ft 472 kts 288°
2026-04-29 18:07 53.08627 2.62213 34557 ft 471 kts 288°
2026-04-29 18:07 53.09592 2.57006 34891 ft 470 kts 288°
2026-04-29 18:08 53.10550 2.51816 35213 ft 470 kts 287°
2026-04-29 18:08 53.11181 2.46494 35532 ft 469 kts 277°
2026-04-29 18:08 53.11608 2.41119 35836 ft 468 kts 278°
2026-04-29 18:08 53.12060 2.35743 36110 ft 468 kts 278°
2026-04-29 18:09 53.12503 2.30366 36364 ft 469 kts 278°
2026-04-29 18:09 53.13374 2.19627 36382 ft 466 kts 278°
2026-04-29 18:10 53.14088 2.10732 36387 ft 466 kts 278°
2026-04-29 18:10 53.14938 2.00018 36385 ft 467 kts 278°
2026-04-29 18:11 53.15779 1.89294 36383 ft 467 kts 277°
2026-04-29 18:11 53.16611 1.78559 36387 ft 467 kts 277°
2026-04-29 18:12 53.17526 1.66596 36396 ft 467 kts 277°
2026-04-29 18:12 53.18338 1.55856 36383 ft 467 kts 277°
2026-04-29 18:13 53.19141 1.45095 36396 ft 467 kts 277°
2026-04-29 18:14 53.20705 1.23738 36398 ft 467 kts 276°
2026-04-29 18:14 53.21479 1.12968 36389 ft 467 kts 276°
2026-04-29 18:15 53.22242 1.02205 36397 ft 467 kts 276°
2026-04-29 18:15 53.22991 0.91493 36393 ft 467 kts 276°
2026-04-29 18:16 53.23735 0.80729 36387 ft 467 kts 276°
2026-04-29 18:16 53.24469 0.69956 36382 ft 467 kts 275°
2026-04-29 18:17 53.25194 0.59167 36398 ft 467 kts 275°
2026-04-29 18:17 53.25910 0.48390 36386 ft 467 kts 275°
2026-04-29 18:18 53.26615 0.37588 36380 ft 467 kts 275°
2026-04-29 18:18 53.27310 0.26801 36382 ft 468 kts 275°
2026-04-29 18:19 53.28002 0.15975 36375 ft 468 kts 275°
2026-04-29 18:19 53.28681 0.05213 36366 ft 469 kts 275°
2026-04-29 18:20 53.29790 -0.05545 36372 ft 470 kts 278°
2026-04-29 18:20 53.30888 -0.16311 36365 ft 470 kts 278°
2026-04-29 18:21 53.31965 -0.27094 36379 ft 470 kts 278°
2026-04-29 18:21 53.33033 -0.37881 36380 ft 470 kts 277°
2026-04-29 18:22 53.34122 -0.48684 36379 ft 470 kts 277°
2026-04-29 18:22 53.35201 -0.59479 36372 ft 470 kts 277°
2026-04-29 18:23 53.36270 -0.70284 36375 ft 470 kts 277°
2026-04-29 18:23 53.37291 -0.80680 36373 ft 470 kts 277°
2026-04-29 18:24 53.38343 -0.91501 36366 ft 471 kts 277°
2026-04-29 18:24 53.39383 -1.02324 36371 ft 471 kts 277°
2026-04-29 18:25 53.40408 -1.13087 36358 ft 471 kts 276°
2026-04-29 18:25 53.41430 -1.23931 36367 ft 471 kts 276°
2026-04-29 18:26 53.42443 -1.34791 36367 ft 471 kts 276°
2026-04-29 18:26 53.43446 -1.45663 36367 ft 472 kts 276°
2026-04-29 18:27 53.44442 -1.56556 36364 ft 472 kts 276°
2026-04-29 18:27 53.45427 -1.67456 36360 ft 473 kts 276°
2026-04-29 18:28 53.46404 -1.78366 36358 ft 474 kts 275°
2026-04-29 18:28 53.47210 -1.87472 36356 ft 473 kts 275°
2026-04-29 18:29 53.48168 -1.98392 36353 ft 473 kts 275°
2026-04-29 18:29 53.49115 -2.09307 36352 ft 472 kts 275°
2026-04-29 18:30 53.50052 -2.20219 36347 ft 472 kts 275°
2026-04-29 18:30 53.50977 -2.31127 36349 ft 471 kts 275°
2026-04-29 18:31 53.51893 -2.42043 36351 ft 471 kts 275°
2026-04-29 18:31 53.52798 -2.52954 36349 ft 471 kts 275°
2026-04-29 18:32 53.53692 -2.63854 36332 ft 471 kts 274°
2026-04-29 18:32 53.55016 -2.80234 36326 ft 471 kts 274°
2026-04-29 18:33 53.55881 -2.91094 36324 ft 471 kts 274°
2026-04-29 18:33 53.56740 -3.02009 36325 ft 471 kts 274°
2026-04-29 18:34 53.57453 -3.11169 36321 ft 471 kts 274°
2026-04-29 18:34 53.58432 -3.23898 36327 ft 472 kts 274°
2026-04-29 18:35 53.59264 -3.34858 36318 ft 472 kts 274°
2026-04-29 18:35 53.60084 -3.45804 36201 ft 466 kts 274°
2026-04-29 18:36 53.60484 -3.51182 35931 ft 458 kts 274°
2026-04-29 18:36 53.60876 -3.56477 35667 ft 454 kts 273°
2026-04-29 18:36 53.61263 -3.61729 35403 ft 451 kts 273°
2026-04-29 18:36 53.61803 -3.66911 35030 ft 450 kts 285°
2026-04-29 18:37 53.62937 -3.71774 34485 ft 452 kts 289°
2026-04-29 18:37 53.64098 -3.76686 33875 ft 452 kts 289°
2026-04-29 18:37 53.65261 -3.81600 33344 ft 449 kts 289°
2026-04-29 18:37 53.66420 -3.86471 32880 ft 446 kts 289°
2026-04-29 18:38 53.67570 -3.91300 32407 ft 442 kts 289°
2026-04-29 18:38 53.68709 -3.96103 31909 ft 440 kts 289°
2026-04-29 18:38 53.69846 -4.00887 31406 ft 438 kts 288°
2026-04-29 18:38 53.70973 -4.05656 30831 ft 438 kts 287°
2026-04-29 18:39 53.71731 -4.10624 29921 ft 436 kts 270°
2026-04-29 18:39 53.71727 -4.15729 28976 ft 435 kts 258°
2026-04-29 18:39 53.71039 -4.20681 28015 ft 432 kts 243°
2026-04-29 18:39 53.69870 -4.25371 27133 ft 436 kts 244°
2026-04-29 18:40 53.68773 -4.30172 26254 ft 441 kts 244°
2026-04-29 18:40 53.67676 -4.35035 25398 ft 445 kts 245°
2026-04-29 18:40 53.66579 -4.39924 24554 ft 445 kts 245°
2026-04-29 18:40 53.65489 -4.44755 23753 ft 436 kts 244°
2026-04-29 18:41 53.62332 -4.58674 21168 ft 415 kts 244°
2026-04-29 18:41 53.61305 -4.63189 20376 ft 409 kts 244°
2026-04-29 18:42 53.60294 -4.67621 19613 ft 404 kts 243°
2026-04-29 18:42 53.59292 -4.72006 18874 ft 399 kts 243°
2026-04-29 18:42 53.58301 -4.76340 18092 ft 395 kts 243°
2026-04-29 18:42 53.57319 -4.80629 17299 ft 390 kts 243°
2026-04-29 18:43 53.56345 -4.84871 16529 ft 386 kts 244°
2026-04-29 18:43 53.55395 -4.89000 15798 ft 382 kts 244°
2026-04-29 18:43 53.54439 -4.93146 15071 ft 377 kts 244°
2026-04-29 18:43 53.53495 -4.97230 14371 ft 372 kts 244°
2026-04-29 18:44 53.52563 -5.01262 13648 ft 368 kts 244°
2026-04-29 18:44 53.51641 -5.05238 12893 ft 363 kts 245°
2026-04-29 18:44 53.50729 -5.09167 12184 ft 358 kts 245°
2026-04-29 18:44 53.49827 -5.13039 11494 ft 354 kts 245°
2026-04-29 18:45 53.48942 -5.16837 10861 ft 348 kts 245°
2026-04-29 18:45 53.48063 -5.20595 10413 ft 338 kts 245°
2026-04-29 18:45 53.47222 -5.24186 10162 ft 322 kts 245°
2026-04-29 18:45 53.46423 -5.27587 9910 ft 306 kts 245°
2026-04-29 18:46 53.45653 -5.30862 9565 ft 296 kts 245°
2026-04-29 18:46 53.44909 -5.34026 9239 ft 286 kts 245°
2026-04-29 18:46 53.44191 -5.37075 8922 ft 277 kts 245°
2026-04-29 18:46 53.43511 -5.40003 8621 ft 271 kts 248°
2026-04-29 18:47 53.43181 -5.43186 8108 ft 283 kts 268°
2026-04-29 18:47 53.43177 -5.46519 7565 ft 287 kts 266°
2026-04-29 18:47 53.43125 -5.49877 7022 ft 288 kts 265°